Location: Izdebno
(52.6670°N, 16.2170°E)
Time: 09:46:38
(UTC+01:00)

Transit 2A - Pass Details

Date: 29 January 2023
Orbit: 591 x 964 km, 66.7° (Epoch: 21 March)

Event Time Altitude Azimuth Distance (km) Brightness Sun altitude
Rises 23:47:00 0° 312° (NW) 3,312 - -54.9°
Reaches altitude 10° 23:49:49 10° 326° (NW) 2,446 - -54.9°
Maximum altitude 23:54:27 25° 20° (NNE) 1,716 - -55.0°
Drops below altitude 10° 23:59:23 10° 74° (ENE) 2,623 - -55.1°
Sets 00:02:30 0° 88° (E) 3,605 - -55.1°
